Regional Weather Roundup
Issued by NWS

Home | Current Version | Previous Version | Text Only | Print | Product List | Glossary Off
Versions: 1 2 3 4 5 6 7 8 9 10 11 12 13 14 15 16 17 18 19 20 21 22 23 24 25 26 27 28 29 30 31 32 33 34 35 36 37 38 39 40 41 42 43 44 45 46 47 48 49 50

000
ASUS43 KFSD 201002
RWRSD

WEATHER ROUNDUP FOR SOUTH DAKOTA
NATIONAL WEATHER SERVICE SIOUX FALLS SD
500 AM CDT FRI APR 20 2018

NOTE: "FAIR" INDICATES FEW OR NO CLOUDS BELOW 12,000 FEET WITH NO
SIGNIFICANT WEATHER AND/OR OBSTRUCTIONS TO VISIBILITY.


SDZ001>005-009-010-012>017-201100-
NORTHWEST AND NORTH CENTRAL SOUTH DAKOTA

CITY           SKY/WX    TMP DP  RH WIND       PRES   REMARKS
BUFFALO          N/A     36  28  73 E9        30.08F
FAITH            N/A     33  29  85 SE17      30.21S WCI  22
MOBRIDGE       FAIR      34  27  75 E9        30.28F WCI  27
$$

SDZ012>016-024>037-041>051-057-063-072>074-201100-
SOUTHWEST AND SOUTH CENTRAL SOUTH DAKOTA

CITY           SKY/WX    TMP DP  RH WIND       PRES   REMARKS
RAPID CTY ARPT FAIR      35  28  75 SE10      30.15F WCI  27
PIERRE         FAIR      33  31  92 E10       30.28F WCI  25
CUSTER         FAIR      34  23  64 E7        30.11F WCI  28
ELLSWORTH AFB  FAIR      39  29  67 S15       30.14F
PHILIP         FAIR      32  29  88 E12       30.21F WCI  23
PINE RIDGE     FAIR      42  28  57 E10G20    30.13F
SPEARFISH      FAIR      41  27  56 E12       30.08S
WINNER         FAIR      34  29  82 E15       30.28F WCI  24
$$

SDZ004>011-016>023-039-040-201100-
NORTHEAST SOUTH DAKOTA

CITY           SKY/WX    TMP DP  RH WIND       PRES   REMARKS
ABERDEEN       FAIR      29  24  82 SE6       30.39S WCI  23
WATERTOWN      CLOUDY    30  23  75 S7        30.39S WCI  23
BROOKINGS      CLOUDY    28  24  85 SE3       30.42R
$$

SDZ017-020-022-023-036>040-048>070-201100-
SOUTHEAST SOUTH DAKOTA

CITY           SKY/WX    TMP DP  RH WIND       PRES   REMARKS
SIOUX FALLS    PTCLDY    30  20  66 E6        30.42S WCI  24
HURON          FAIR      31  24  75 SE8       30.38S WCI  23
CHAMBERLAIN    FAIR      33  33  98 SE9       30.32F WCI  26
MITCHELL       FAIR      30  25  81 SE7       30.39R WCI  23
YANKTON        PTCLDY    31  26  82 E7        30.39S WCI  24
$$

ABBREVIATIONS USED IN REMARKS
   TC - TEMPERATURE IN CELSIUS
  WCI - WIND CHILL INDEX
   HX - HEAT INDEX
  VSB - VISIBILITY





USA.gov is the U.S. government's official web portal to all federal, state and local government web resources and services.